EW2310 Weather Reports


Display with metric or nautical units.
time (UTC)temp
F
wind
direction
speed
MPH
gust
MPH
rain 1hr
in
rain 24hr
in
rain mn
in
humidity
%
barometer
mb
20260509183045 66 165 4.0 5.0 0.00 0.00 0.00 76 1012.7
20260509182545 66 150 2.0 7.0 0.00 0.00 0.00 76 1012.6
20260509182045 66 172 2.0 5.0 0.00 0.00 0.00 76 1012.6
20260509181545 66 178 3.0 6.0 0.00 0.00 0.00 76 1012.7
20260509181045 66 175 1.0 7.0 0.00 0.00 0.00 76 1012.7
20260509180548 66 172 2.0 7.0 0.00 0.00 0.00 75 1012.6
20260509180045 67 175 6.0 8.0 0.00 0.00 0.00 74 1012.5
20260509175545 67 155 7.0 8.0 0.00 0.00 0.00 73 1012.6
20260509175048 67 162 6.0 7.0 0.00 0.00 0.00 73 1012.7
20260509174545 67 169 4.0 5.0 0.00 0.00 0.00 72 1012.8
20260509174048 67 171 2.0 5.0 0.00 0.00 0.00 71 1012.7
20260509173545 68 175 0.0 4.0 0.00 0.00 0.00 71 1012.8
20260509173045 67 176 1.0 3.0 0.00 0.00 0.00 70 1012.7
20260509172545 67 182 2.0 6.0 0.00 0.00 0.00 71 1012.4
20260509172048 67 85 2.0 5.0 0.00 0.00 0.00 71 1012.4
20260509171545 67 83 4.0 5.0 0.00 0.00 0.00 72 1012.3
20260509171045 67 90 3.0 8.0 0.00 0.00 0.00 74 1012.1
20260509170545 67 65 3.0 8.0 0.00 0.00 0.00 75 1012.0
20260509170045 67 92 4.0 6.0 0.00 0.00 0.00 75 1012.1
20260509165545 67 144 5.0 6.0 0.00 0.00 0.00 74 1012.3
20260509165045 67 171 2.0 5.0 0.00 0.00 0.00 74 1012.6
20260509164545 67 172 3.0 6.0 0.00 0.00 0.00 73 1012.8
20260509164045 68 174 1.0 4.0 0.00 0.00 0.00 73 1012.9
20260509163548 68 173 5.0 6.0 0.00 0.00 0.00 72 1013.1
20260509163045 69 169 2.0 5.0 0.00 0.00 0.00 71 1013.1
20260509162545 69 169 1.0 6.0 0.00 0.00 0.00 70 1013.2
20260509162045 70 179 2.0 4.0 0.00 0.00 0.00 68 1013.2
20260509161545 70 217 1.0 3.0 0.00 0.00 0.00 68 1013.3
20260509161045 70 224 1.0 4.0 0.00 0.00 0.00 68 1013.3
20260509160545 70 232 4.0 4.0 0.00 0.00 0.00 68 1013.4
20260509160045 71 209 0.0 6.0 0.00 0.00 0.00 67 1013.4
20260509155545 71 194 0.0 6.0 0.00 0.00 0.00 67 1013.3
20260509155045 70 191 2.0 5.0 0.00 0.00 0.00 66 1013.3
20260509154545 71 180 1.0 4.0 0.00 0.00 0.00 66 1013.2
20260509154045 71 211 1.0 3.0 0.00 0.00 0.00 66 1013.2
20260509153545 71 250 0.0 4.0 0.00 0.00 0.00 66 1013.2
20260509153045 70 200 0.0 3.0 0.00 0.00 0.00 68 1013.1
20260509152545 70 312 1.0 4.0 0.00 0.00 0.00 68 1013.3
20260509152045 71 145 3.0 3.0 0.00 0.00 0.00 68 1013.4
20260509151545 71 33 1.0 4.0 0.00 0.00 0.00 67 1013.5
20260509151045 71 217 2.0 9.0 0.00 0.00 0.00 66 1013.5
20260509150548 72 266 4.0 6.0 0.00 0.00 0.00 65 1013.5
20260509150045 72 253 5.0 6.0 0.00 0.00 0.00 63 1013.5
20260509145545 72 241 1.0 4.0 0.00 0.00 0.00 64 1013.4
20260509145045 73 192 1.0 7.0 0.00 0.00 0.00 62 1013.5
20260509144545 73 56 4.0 5.0 0.00 0.00 0.00 61 1013.5
20260509144045 74 162 0.0 9.0 0.00 0.00 0.00 59 1013.5
20260509143545 74 229 7.0 8.0 0.00 0.00 0.00 57 1013.5
20260509143045 74 218 3.0 9.0 0.00 0.00 0.00 55 1013.6
20260509142548 74 200 0.0 7.0 0.00 0.00 0.00 51 1013.7
20260509142046 74 203 3.0 5.0 0.00 0.00 0.00 52 1013.8
20260509141545 74 213 4.0 7.0 0.00 0.00 0.00 52 1013.8
20260509141045 74 169 0.0 6.0 0.00 0.00 0.00 49 1013.8
20260509140545 74 208 1.0 3.0 0.00 0.00 0.00 55 1013.8
20260509140045 74 209 2.0 4.0 0.00 0.00 0.00 56 1013.9
20260509135545 74 289 0.0 4.0 0.00 0.00 0.00 58 1014.0
20260509135045 74 67 1.0 3.0 0.00 0.00 0.00 58 1014.1
20260509134548 74 138 0.0 4.0 0.00 0.00 0.00 58 1014.3
20260509134045 74 206 1.0 6.0 0.00 0.00 0.00 57 1014.4
20260509133545 74 205 0.0 6.0 0.00 0.00 0.00 57 1014.5
20260509133045 74 180 2.0 9.0 0.00 0.00 0.00 55 1014.6
20260509132548 74 194 3.0 6.0 0.00 0.00 0.00 53 1014.6
20260509132045 74 153 1.0 4.0 0.00 0.00 0.00 56 1014.6
20260509131545 74 109 3.0 5.0 0.00 0.00 0.00 56 1014.6
20260509131045 74 150 1.0 7.0 0.00 0.00 0.00 55 1014.5
20260509130545 75 154 1.0 5.0 0.00 0.00 0.00 54 1014.6
20260509130048 75 303 1.0 5.0 0.00 0.00 0.00 56 1014.6
20260509125545 75 185 2.0 3.0 0.00 0.00 0.00 55 1014.7
20260509125045 75 213 1.0 4.0 0.00 0.00 0.00 56 1014.7
20260509124548 74 312 1.0 6.0 0.00 0.00 0.00 56 1014.7
20260509124048 74 214 3.0 6.0 0.00 0.00 0.00 58 1014.6
20260509123548 74 330 1.0 4.0 0.00 0.00 0.00 56 1014.8
20260509123045 75 295 2.0 6.0 0.00 0.00 0.00 56 1014.8
20260509122545 75 187 0.0 4.0 0.00 0.00 0.00 56 1014.8
20260509122045 74 331 0.0 4.0 0.00 0.00 0.00 56 1014.8
20260509121545 74 19 1.0 9.0 0.00 0.00 0.00 57 1014.9
20260509121048 74 200 0.0 7.0 0.00 0.00 0.00 56 1014.8
20260509120545 75 221 6.0 10.0 0.00 0.00 0.00 55 1014.8
20260509120045 75 220 3.0 9.0 0.00 0.00 0.00 55 1014.9
20260509115548 75 169 4.0 9.0 0.00 0.00 0.00 54 1014.8
20260509115045 75 69 2.0 8.0 0.00 0.00 0.00 55 1014.8
20260509114545 75 179 1.0 9.0 0.00 0.00 0.00 54 1014.9
20260509114045 75 198 2.0 8.0 0.00 0.00 0.00 55 1014.9
20260509113545 75 13 2.0 5.0 0.00 0.00 0.00 55 1014.9
20260509113045 75 253 1.0 7.0 0.00 0.00 0.00 55 1014.9
20260509112545 75 146 1.0 9.0 0.00 0.00 0.00 55 1015.0
20260509112045 75 218 1.0 4.0 0.00 0.00 0.00 55 1015.0
20260509111546 75 32 4.0 4.0 0.00 0.00 0.00 55 1015.0
20260509111045 75 177 0.0 6.0 0.00 0.00 0.00 55 1015.0
20260509110545 75 217 2.0 6.0 0.00 0.00 0.00 56 1014.9
20260509110045 74 350 1.0 6.0 0.00 0.00 0.00 57 1014.9
20260509105545 74 114 1.0 7.0 0.00 0.00 0.00 56 1014.9
20260509105048 74 341 1.0 4.0 0.00 0.00 0.00 56 1015.0
20260509104545 74 154 3.0 4.0 0.00 0.00 0.00 58 1015.0
20260509104045 74 226 2.0 8.0 0.00 0.00 0.00 58 1015.1
20260509103545 74 122 1.0 5.0 0.00 0.00 0.00 58 1015.1
20260509103045 74 255 2.0 6.0 0.00 0.00 0.00 57 1015.0
20260509102545 75 132 2.0 5.0 0.00 0.00 0.00 57 1015.0
20260509102045 74 315 2.0 8.0 0.00 0.00 0.00 58 1014.9
20260509101545 74 211 1.0 8.0 0.00 0.00 0.00 59 1014.9
20260509101045 74 195 4.0 8.0 0.00 0.00 0.00 58 1014.8
20260509100545 73 236 5.0 8.0 0.00 0.00 0.00 57 1014.8
20260509100045 74 158 2.0 9.0 0.00 0.00 0.00 56 1014.8
20260509095545 74 178 3.0 8.0 0.00 0.00 0.00 55 1014.7
20260509095045 75 177 1.0 4.0 0.00 0.00 0.00 56 1014.7
20260509094545 75 289 1.0 4.0 0.00 0.00 0.00 56 1014.7
20260509094045 75 237 3.0 3.0 0.00 0.00 0.00 55 1014.6
20260509093545 74 175 0.0 3.0 0.00 0.00 0.00 55 1014.7
20260509093045 74 202 1.0 4.0 0.00 0.00 0.00 56 1014.7
20260509092545 74 338 1.0 3.0 0.00 0.00 0.00 55 1014.8
20260509092048 74 307 0.0 2.0 0.00 0.00 0.00 55 1014.8
20260509091548 73 314 0.0 3.0 0.00 0.00 0.00 53 1014.8
20260509091045 73 261 0.0 3.0 0.00 0.00 0.00 55 1014.9
20260509090545 72 10 0.0 5.0 0.00 0.00 0.00 56 1014.8
20260509090045 72 46 2.0 6.0 0.00 0.00 0.00 55 1014.8
20260509085545 73 346 3.0 5.0 0.00 0.00 0.00 55 1014.7
20260509085045 72 262 1.0 3.0 0.00 0.00 0.00 57 1014.7
20260509084548 71 321 4.0 6.0 0.00 0.00 0.00 57 1014.7
20260509084045 71 318 2.0 5.0 0.00 0.00 0.00 58 1014.7
20260509083545 71 13 1.0 8.0 0.00 0.00 0.00 58 1014.7
20260509083045 70 333 5.0 8.0 0.00 0.00 0.00 59 1014.7
20260509082545 70 324 3.0 5.0 0.00 0.00 0.00 59 1014.7
20260509082045 70 321 4.0 5.0 0.00 0.00 0.00 60 1014.7
20260509081545 70 344 3.0 5.0 0.00 0.00 0.00 62 1014.7
20260509081045 69 337 4.0 6.0 0.00 0.00 0.00 62 1014.7
20260509080545 69 316 3.0 8.0 0.00 0.00 0.00 62 1014.7
20260509080045 69 324 8.0 9.0 0.00 0.00 0.00 65 1014.7
20260509075545 69 5 5.0 9.0 0.00 0.00 0.00 65 1014.5
20260509075048 69 355 5.0 8.0 0.00 0.00 0.00 66 1014.7
20260509074548 68 346 1.0 8.0 0.00 0.00 0.00 67 1014.7
20260509074045 68 329 6.0 8.0 0.00 0.00 0.00 66 1014.9
20260509073546 68 322 2.0 8.0 0.00 0.00 0.00 68 1015.0
20260509073045 68 333 6.0 8.0 0.00 0.00 0.00 68 1015.0
20260509072545 68 317 1.0 10.0 0.00 0.00 0.00 69 1014.9
20260509072045 67 311 2.0 5.0 0.00 0.00 0.00 71 1014.9
20260509071545 67 344 4.0 6.0 0.00 0.00 0.00 71 1014.9
20260509071045 67 333 3.0 8.0 0.00 0.00 0.00 72 1015.0
20260509070545 67 277 0.0 5.0 0.00 0.00 0.00 73 1015.0
20260509070045 66 13 3.0 8.0 0.00 0.00 0.00 71 1015.0
20260509065545 66 5 4.0 6.0 0.00 0.00 0.00 70 1015.0
20260509065045 66 0 5.0 6.0 0.00 0.00 0.00 69 1015.0
20260509064545 66 355 5.0 5.0 0.00 0.00 0.00 69 1015.0
20260509064045 66 304 2.0 4.0 0.00 0.00 0.00 69 1015.1
20260509063545 66 313 2.0 5.0 0.00 0.00 0.00 70 1015.1
20260509063048 66 345 3.0 5.0 0.00 0.00 0.00 70 1015.2
20260509062545 65 323 3.0 5.0 0.00 0.00 0.00 71 1015.2
20260509062048 65 355 4.0 6.0 0.00 0.00 0.00 71 1015.2
20260509061548 65 336 4.0 5.0 0.00 0.00 0.00 73 1015.3
20260509061045 65 294 0.0 3.0 0.00 0.00 0.00 73 1015.2
20260509060545 65 326 2.0 4.0 0.00 0.00 0.00 75 1015.2
20260509060045 65 152 2.0 2.0 0.00 0.00 0.00 76 1015.2
20260509055545 64 152 0.0 1.0 0.00 0.00 0.00 77 1015.2
20260509055045 63 152 0.0 1.0 0.00 0.00 0.00 77 1015.3
20260509054545 63 152 1.0 1.0 0.00 0.00 0.00 78 1015.3
20260509054045 62 152 0.0 0.0 0.00 0.00 0.00 79 1015.4
20260509053545 62 152 0.0 2.0 0.00 0.00 0.00 79 1015.3
20260509053048 61 152 1.0 2.0 0.00 0.00 0.00 79 1015.2
20260509052545 61 152 1.0 2.0 0.00 0.00 0.00 80 1015.3
20260509052045 61 152 0.0 2.0 0.00 0.00 0.00 81 1015.3
20260509051545 60 152 0.0 2.0 0.00 0.00 0.00 81 1015.2
20260509051048 60 152 0.0 3.0 0.00 0.00 0.00 82 1015.2
20260509050545 60 152 0.0 2.0 0.00 0.00 0.00 83 1015.2
20260509050045 59 151 1.0 3.0 0.00 0.00 0.00 83 1015.1
20260509045545 59 151 1.0 2.0 0.00 0.00 0.00 84 1015.2
20260509045045 59 151 0.0 1.0 0.00 0.00 0.00 84 1015.2
20260509044545 59 151 0.0 0.0 0.00 0.00 0.00 85 1015.2
20260509044045 59 151 0.0 1.0 0.00 0.00 0.00 85 1015.2
20260509043545 58 151 0.0 1.0 0.00 0.00 0.00 85 1015.2
20260509043045 58 151 0.0 1.0 0.00 0.00 0.00 85 1015.1
20260509042545 58 151 0.0 1.0 0.00 0.00 0.00 85 1015.0
20260509042045 59 151 0.0 1.0 0.00 0.00 0.00 85 1015.0
20260509041545 59 151 0.0 1.0 0.00 0.00 0.00 85 1015.0
20260509041045 59 151 0.0 1.0 0.00 0.00 0.00 84 1014.9
20260509040545 59 151 0.0 1.0 0.00 0.00 0.00 84 1014.9
20260509040045 59 151 0.0 1.0 0.00 0.00 0.00 84 1014.8
20260509035545 60 151 0.0 2.0 0.00 0.00 0.00 84 1014.8
20260509035045 60 151 0.0 1.0 0.00 0.00 0.00 84 1014.8
20260509034548 60 151 0.0 1.0 0.00 0.00 0.00 83 1014.7
20260509034045 60 151 0.0 0.0 0.00 0.00 0.00 83 1014.8
20260509033545 60 151 0.0 0.0 0.00 0.00 0.00 83 1014.7
20260509033045 60 151 0.0 0.0 0.00 0.00 0.00 83 1014.6
20260509032548 60 151 0.0 0.0 0.00 0.00 0.00 83 1014.7
20260509032045 60 151 0.0 0.0 0.00 0.00 0.00 83 1014.4
20260509031545 60 151 0.0 0.0 0.00 0.00 0.00 83 1014.5
20260509031048 60 151 0.0 0.0 0.00 0.00 0.00 83 1014.5
20260509030545 60 151 0.0 0.0 0.00 0.00 0.00 84 1014.4
20260509030048 60 151 0.0 1.0 0.00 0.00 0.00 84 1014.3
20260509025548 60 151 0.0 2.0 0.00 0.00 0.00 84 1014.3
20260509025045 60 151 0.0 0.0 0.00 0.00 0.00 84 1014.2
20260509024545 60 151 0.0 0.0 0.00 0.00 0.00 84 1014.1
20260509024045 60 151 0.0 1.0 0.00 0.00 0.00 84 1014.1
20260509023545 60 151 0.0 0.0 0.00 0.00 0.00 84 1014.2
20260509023045 60 151 0.0 0.0 0.00 0.00 0.00 84 1014.2
20260509022548 60 151 0.0 0.0 0.00 0.00 0.00 84 1014.1
20260509022048 60 151 0.0 2.0 0.00 0.00 0.00 85 1014.1
20260509021548 60 151 1.0 2.0 0.00 0.00 0.00 85 1014.3
20260509021046 60 151 0.0 1.0 0.00 0.00 0.00 85 1014.4
20260509020548 60 151 0.0 1.0 0.00 0.00 0.00 85 1014.4
20260509020045 60 151 0.0 1.0 0.00 0.00 0.00 85 1014.3
20260509015545 60 151 1.0 2.0 0.00 0.00 0.00 85 1014.3
20260509015048 60 151 1.0 1.0 0.00 0.00 0.00 84 1014.2
20260509014545 60 151 0.0 2.0 0.00 0.00 0.00 84 1014.2
20260509014045 60 151 0.0 0.0 0.00 0.00 0.00 83 1014.2
20260509013545 60 151 0.0 2.0 0.00 0.00 0.00 83 1014.2
20260509013045 60 151 0.0 2.0 0.00 0.00 0.00 83 1014.1
20260509012545 60 151 0.0 1.0 0.00 0.00 0.00 83 1014.2
20260509012045 60 151 1.0 1.0 0.00 0.00 0.00 83 1014.2
20260509011548 60 151 0.0 0.0 0.00 0.00 0.00 83 1014.1
20260509011045 60 151 0.0 0.0 0.00 0.00 0.00 83 1014.1
20260509010545 60 151 0.0 1.0 0.00 0.00 0.00 83 1014.2
20260509010045 60 151 0.0 0.0 0.00 0.00 0.00 83 1014.2
20260509005545 60 151 0.0 0.0 0.00 0.00 0.00 83 1014.2
20260509005048 60 151 0.0 0.0 0.00 0.00 0.00 83 1014.3
20260509004548 60 151 0.0 0.0 0.00 0.00 0.00 83 1014.2
20260509004045 60 151 0.0 0.0 0.00 0.00 0.00 83 1014.3
20260509003545 60 151 0.0 0.0 0.00 0.00 0.00 83 1014.3
20260509003048 60 151 0.0 0.0 0.00 0.00 0.00 83 1014.3
20260509002545 60 151 0.0 0.0 0.00 0.00 0.00 83 1014.2
20260509002045 60 151 0.0 0.0 0.00 0.00 0.00 83 1014.2
20260509001545 60 151 0.0 2.0 0.00 0.00 0.00 83 1014.1
20260509001045 61 151 0.0 2.0 0.00 0.00 0.00 83 1014.2
20260509000545 61 151 2.0 2.0 0.00 0.00 0.00 82 1014.2
20260509000045 61 151 0.0 2.0 0.00 0.00 0.00 82 1014.1
20260508235545 61 151 0.0 1.0 0.00 0.00 0.00 82 1014.0
20260508235045 61 151 1.0 1.0 0.00 0.00 0.00 81 1014.0
20260508234545 61 151 0.0 1.0 0.00 0.00 0.00 81 1014.0
20260508234048 61 151 0.0 0.0 0.00 0.00 0.00 81 1014.0
20260508233548 61 151 0.0 0.0 0.00 0.00 0.00 81 1014.0
20260508233048 61 151 0.0 0.0 0.00 0.00 0.00 81 1014.0
20260508232545 61 151 0.0 1.0 0.00 0.00 0.00 81 1014.0
20260508232045 61 151 0.0 0.0 0.00 0.00 0.00 81 1014.0
20260508231545 61 151 0.0 0.0 0.00 0.00 0.00 81 1014.0
20260508231045 61 151 0.0 0.0 0.00 0.00 0.00 81 1014.0
20260508230545 61 151 0.0 1.0 0.00 0.00 0.00 81 1014.0
20260508230045 61 151 0.0 1.0 0.00 0.00 0.00 82 1013.9
20260508225545 61 151 0.0 3.0 0.00 0.00 0.00 82 1013.9
20260508225045 62 151 0.0 1.0 0.00 0.00 0.00 83 1013.8
20260508224548 62 151 0.0 1.0 0.00 0.00 0.00 83 1013.8
20260508224045 62 151 0.0 0.0 0.00 0.00 0.00 83 1013.9
20260508223545 62 151 0.0 0.0 0.00 0.00 0.00 83 1013.8
20260508223046 62 151 0.0 1.0 0.00 0.00 0.00 83 1013.9
20260508222545 62 151 0.0 4.0 0.00 0.00 0.00 83 1013.9
20260508222045 63 151 3.0 3.0 0.00 0.00 0.00 83 1013.9
20260508221545 63 150 2.0 10.0 0.00 0.00 0.00 82 1013.9
20260508221045 64 330 0.0 3.0 0.00 0.00 0.00 82 1013.8
20260508220545 64 330 2.0 3.0 0.00 0.00 0.00 82 1013.8
20260508220045 64 330 2.0 2.0 0.00 0.00 0.00 82 1013.8
20260508215545 64 330 1.0 2.0 0.00 0.00 0.00 81 1013.8
20260508215045 64 330 0.0 1.0 0.00 0.00 0.00 81 1013.8
20260508214548 64 330 1.0 2.0 0.00 0.00 0.00 81 1013.7
20260508214045 64 330 0.0 0.0 0.00 0.00 0.00 81 1013.7
20260508213545 64 330 0.0 0.0 0.00 0.00 0.00 80 1013.7
20260508213045 64 330 0.0 1.0 0.00 0.00 0.00 80 1013.7
20260508212548 64 330 0.0 1.0 0.00 0.00 0.00 80 1013.6
20260508212045 64 330 0.0 2.0 0.00 0.00 0.00 80 1013.6
20260508211548 64 330 0.0 5.0 0.00 0.00 0.00 80 1013.5
20260508211048 65 338 1.0 6.0 0.00 0.00 0.00 80 1013.6
20260508210545 65 333 0.0 4.0 0.00 0.00 0.00 79 1013.6
20260508210045 65 331 1.0 6.0 0.00 0.00 0.00 79 1013.5
20260508205545 65 319 3.0 7.0 0.00 0.00 0.00 79 1013.5
20260508205045 65 327 2.0 6.0 0.00 0.00 0.00 78 1013.5
20260508204550 65 20 1.0 4.0 0.00 0.00 0.00 78 1013.5
20260508204045 65 30 2.0 5.0 0.00 0.00 0.00 78 1013.6
20260508203545 65 331 2.0 8.0 0.00 0.00 0.00 78 1013.7
20260508203045 65 337 4.0 6.0 0.00 0.00 0.00 77 1013.7
20260508202545 65 336 4.0 6.0 0.00 0.00 0.00 76 1013.7
20260508202045 66 350 2.0 8.0 0.00 0.00 0.00 76 1013.7
20260508201548 66 319 4.0 6.0 0.00 0.00 0.00 76 1013.7
20260508201046 66 340 2.0 6.0 0.00 0.00 0.00 75 1013.6
20260508200548 66 339 5.0 8.0 0.00 0.00 0.00 75 1013.6
20260508200045 66 341 4.0 8.0 0.00 0.00 0.00 75 1013.6
20260508195545 66 0 2.0 6.0 0.00 0.00 0.00 74 1013.5
20260508195045 66 25 6.0 5.0 0.00 0.00 0.00 74 1013.4
20260508194545 66 38 1.0 3.0 0.00 0.00 0.00 74 1013.3
20260508194045 66 38 1.0 3.0 0.00 0.00 0.00 74 1013.3
20260508193548 66 38 1.0 3.0 0.00 0.00 0.00 73 1013.2
20260508193048 66 38 1.0 4.0 0.00 0.00 0.00 73 1013.2
20260508192545 66 38 2.0 4.0 0.00 0.00 0.00 73 1013.1
20260508192045 66 38 1.0 3.0 0.00 0.00 0.00 73 1013.0
20260508191548 66 38 2.0 5.0 0.00 0.00 0.00 73 1012.9
20260508191045 66 39 1.0 5.0 0.00 0.00 0.00 73 1012.9
20260508190545 66 42 2.0 5.0 0.00 0.00 0.00 72 1012.8
20260508190045 67 45 1.0 4.0 0.00 0.00 0.00 72 1012.7
20260508185545 67 45 3.0 4.0 0.00 0.00 0.00 72 1012.8
20260508185048 67 45 2.0 3.0 0.00 0.00 0.00 72 1012.8
20260508184545 67 45 3.0 3.0 0.00 0.00 0.00 71 1012.6
20260508184045 67 45 1.0 2.0 0.00 0.00 0.00 71 1012.6
20260508183545 67 45 0.0 1.0 0.00 0.00 0.00 70 1012.5